When you browse on this site, cookies collect data to enhance your experience and personalize the content and advertising you see.
Visit our Privacy Policy to learn more. By continuing to use the site, you agree to this use of cookies and data.
  • In Hungary
  • List of Countries
  • For 7 days
  • Water Temperature
  • Weather Map
  • News
  • Weather Widgets
  • user-avatar
    Login

    Hourly Weather Rubashkin

    Today, 23 October, Wednesday

    Time Temperature Precipitation Wind Pressure Humidity
    00:00 +14°C° 0 mm 2 mps 764 mmHg 57%
    01:00 +14°C° 0 mm 1 mps 764 mmHg 58%
    02:00 +13°C° 0 mm 1 mps 764 mmHg 59%
    03:00 +12°C° 0 mm 0 mps 765 mmHg 62%
    04:00 +11°C° 0 mm 0 mps 765 mmHg 64%
    05:00 +11°C° 0 mm 0 mps 765 mmHg 65%
    06:00 +11°C° 0 mm 0 mps 765 mmHg 66%
    07:00 +12°C° 0 mm 0 mps 765 mmHg 62%
    08:00 +14°C° 0 mm 1 mps 765 mmHg 58%
    09:00 +16°C° 0 mm 1 mps 765 mmHg 53%
    10:00 +18°C° 0 mm 1 mps 765 mmHg 50%
    11:00 +19°C° 0 mm 1 mps 765 mmHg 46%
    12:00 +21°C° 0 mm 1 mps 765 mmHg 43%
    13:00 +21°C° 0 mm 1 mps 764 mmHg 42%
    14:00 +21°C° 0 mm 1 mps 764 mmHg 41%
    15:00 +22°C° 0 mm 1 mps 764 mmHg 40%
    16:00 +20°C° 0 mm 1 mps 764 mmHg 45%
    17:00 +19°C° 0 mm 1 mps 764 mmHg 49%
    18:00 +16°C° 0 mm 0 mps 764 mmHg 53%
    19:00 +16°C° 0 mm 1 mps 764 mmHg 54%
    20:00 +16°C° 0 mm 1 mps 764 mmHg 56%
    21:00 +15°C° 0 mm 2 mps 764 mmHg 58%
    22:00 +15°C° 0 mm 2 mps 764 mmHg 59%
    23:00 +14°C° 0 mm 2 mps 763 mmHg 60%

    Tomorrow, 24 October, Thursday

    Time Temperature Precipitation Wind Pressure Humidity
    00:00 +14°C° 0 mm 2 mps 763 mmHg 61%
    01:00 +14°C° 0 mm 2 mps 763 mmHg 61%
    02:00 +13°C° 0 mm 1 mps 763 mmHg 62%
    03:00 +13°C° 0 mm 1 mps 763 mmHg 62%
    04:00 +13°C° 0 mm 1 mps 763 mmHg 62%
    05:00 +13°C° 0 mm 1 mps 763 mmHg 62%
    06:00 +12°C° 0 mm 1 mps 763 mmHg 63%
    07:00 +14°C° 0 mm 1 mps 763 mmHg 59%
    08:00 +15°C° 0 mm 2 mps 763 mmHg 55%
    09:00 +16°C° 0 mm 2 mps 763 mmHg 51%
    10:00 +17°C° 0 mm 2 mps 763 mmHg 47%
    11:00 +19°C° 0 mm 2 mps 763 mmHg 43%
    12:00 +20°C° 0 mm 3 mps 763 mmHg 39%
    13:00 +21°C° 0 mm 2 mps 763 mmHg 38%
    14:00 +21°C° 0 mm 2 mps 763 mmHg 37%
    15:00 +21°C° 0 mm 2 mps 762 mmHg 36%
    16:00 +20°C° 0 mm 2 mps 762 mmHg 39%
    17:00 +19°C° 0 mm 2 mps 762 mmHg 42%
    18:00 +17°C° 0 mm 2 mps 762 mmHg 45%
    19:00 +16°C° 0 mm 2 mps 762 mmHg 46%
    20:00 +16°C° 0 mm 3 mps 762 mmHg 47%
    21:00 +14°C° 0 mm 3 mps 762 mmHg 49%
    22:00 +14°C° 0 mm 3 mps 762 mmHg 50%
    23:00 +13°C° 0 mm 3 mps 762 mmHg 52%

    Day after tomorrow, 25 October, Friday

    Time Temperature Precipitation Wind Pressure Humidity
    00:00 +13°C° 0 mm 3 mps 762 mmHg 54%
    01:00 +14°C° 0 mm 2 mps 762 mmHg 55%
    02:00 +14°C° 0 mm 2 mps 762 mmHg 55%
    03:00 +14°C° 0 mm 2 mps 762 mmHg 56%
    04:00 +13°C° 0 mm 2 mps 762 mmHg 55%
    05:00 +13°C° 0 mm 2 mps 762 mmHg 54%
    06:00 +13°C° 0 mm 2 mps 762 mmHg 54%
    07:00 +13°C° 0 mm 3 mps 762 mmHg 53%
    08:00 +14°C° 0 mm 3 mps 762 mmHg 52%
    09:00 +16°C° 0 mm 3 mps 762 mmHg 51%
    10:00 +17°C° 0 mm 3 mps 762 mmHg 49%
    11:00 +18°C° 0 mm 4 mps 762 mmHg 47%
    12:00 +20°C° 0 mm 4 mps 762 mmHg 46%
    13:00 +20°C° 0 mm 4 mps 762 mmHg 44%
    14:00 +20°C° 0 mm 4 mps 762 mmHg 41%
    15:00 +21°C° 0 mm 4 mps 762 mmHg 39%
    16:00 +19°C° 0 mm 4 mps 762 mmHg 44%
    17:00 +17°C° 0 mm 4 mps 762 mmHg 49%
    18:00 +14°C° 0 mm 3 mps 762 mmHg 53%
    19:00 +14°C° 0 mm 3 mps 762 mmHg 56%
    20:00 +13°C° 0 mm 3 mps 762 mmHg 58%
    21:00 +13°C° 0 mm 3 mps 762 mmHg 61%
    22:00 +12°C° 0 mm 3 mps 762 mmHg 59%
    23:00 +12°C° 0 mm 3 mps 763 mmHg 58%

    26 October, Saturday

    Time Temperature Precipitation Wind Pressure Humidity
    00:00 +12°C° 0 mm 3 mps 763 mmHg 56%
    01:00 +12°C° 0 mm 3 mps 763 mmHg 56%
    02:00 +11°C° 0 mm 3 mps 763 mmHg 56%
    03:00 +11°C° 0 mm 3 mps 763 mmHg 56%
    04:00 +11°C° 0 mm 3 mps 763 mmHg 57%
    05:00 +11°C° 0 mm 3 mps 763 mmHg 58%
    06:00 +10°C° 0 mm 3 mps 763 mmHg 59%
    07:00 +11°C° 0 mm 3 mps 764 mmHg 56%
    08:00 +12°C° 0 mm 3 mps 764 mmHg 52%
    09:00 +13°C° 0 mm 3 mps 764 mmHg 48%
    10:00 +15°C° 0 mm 4 mps 764 mmHg 43%
    11:00 +18°C° 0 mm 4 mps 764 mmHg 38%
    12:00 +19°C° 0 mm 4 mps 764 mmHg 33%
    13:00 +20°C° 0 mm 4 mps 764 mmHg 32%
    14:00 +20°C° 0 mm 3 mps 763 mmHg 31%
    15:00 +20°C° 0 mm 3 mps 763 mmHg 31%
    16:00 +19°C° 0 mm 3 mps 763 mmHg 35%
    17:00 +17°C° 0 mm 2 mps 763 mmHg 39%
    18:00 +15°C° 0 mm 2 mps 764 mmHg 43%
    19:00 +15°C° 0 mm 2 mps 764 mmHg 46%
    20:00 +14°C° 0 mm 2 mps 764 mmHg 49%
    21:00 +14°C° 0 mm 2 mps 764 mmHg 51%
    22:00 +13°C° 0 mm 2 mps 764 mmHg 53%
    23:00 +13°C° 0 mm 2 mps 764 mmHg 55%

    27 October, Sunday

    Time Temperature Precipitation Wind Pressure Humidity
    00:00 +12°C° 0 mm 2 mps 764 mmHg 56%
    01:00 +12°C° 0 mm 2 mps 764 mmHg 57%
    02:00 +12°C° 0 mm 1 mps 764 mmHg 59%
    03:00 +12°C° 0 mm 1 mps 764 mmHg 60%
    04:00 +11°C° 0 mm 1 mps 763 mmHg 61%
    05:00 +11°C° 0 mm 1 mps 763 mmHg 62%
    06:00 +11°C° 0 mm 1 mps 763 mmHg 63%
    07:00 +12°C° 0 mm 1 mps 763 mmHg 59%
    08:00 +13°C° 0 mm 1 mps 763 mmHg 56%
    09:00 +15°C° 0 mm 1 mps 763 mmHg 52%
    10:00 +16°C° 0 mm 1 mps 763 mmHg 49%
    11:00 +19°C° 0 mm 1 mps 763 mmHg 45%
    12:00 +20°C° 0 mm 1 mps 763 mmHg 42%
    13:00 +21°C° 0 mm 1 mps 763 mmHg 41%
    14:00 +21°C° 0 mm 1 mps 762 mmHg 40%
    15:00 +22°C° 0 mm 1 mps 762 mmHg 39%
    16:00 +20°C° 0 mm 1 mps 761 mmHg 45%
    17:00 +19°C° 0 mm 1 mps 761 mmHg 52%
    18:00 +16°C° 0 mm 1 mps 761 mmHg 58%
    19:00 +15°C° 0 mm 1 mps 761 mmHg 62%
    20:00 +15°C° 0 mm 2 mps 761 mmHg 66%
    21:00 +14°C° 0 mm 2 mps 761 mmHg 69%
    22:00 +14°C° 0 mm 2 mps 761 mmHg 67%
    23:00 +13°C° 0 mm 2 mps 760 mmHg 64%

    28 October, Monday

    Time Temperature Precipitation Wind Pressure Humidity
    00:00 +13°C° 0 mm 2 mps 760 mmHg 62%
    01:00 +13°C° 0 mm 2 mps 760 mmHg 61%
    02:00 +12°C° 0 mm 2 mps 760 mmHg 60%
    03:00 +12°C° 0 mm 2 mps 760 mmHg 59%
    04:00 +12°C° 0 mm 2 mps 759 mmHg 60%
    05:00 +10°C° 0 mm 2 mps 759 mmHg 61%
    06:00 +10°C° 0 mm 2 mps 759 mmHg 62%
    07:00 +12°C° 0 mm 2 mps 759 mmHg 58%
    08:00 +13°C° 0 mm 2 mps 759 mmHg 55%
    09:00 +15°C° 0 mm 2 mps 759 mmHg 51%
    10:00 +16°C° 0 mm 2 mps 759 mmHg 47%
    11:00 +18°C° 0 mm 2 mps 759 mmHg 44%
    12:00 +19°C° 0 mm 2 mps 758 mmHg 41%
    13:00 +20°C° 0 mm 2 mps 758 mmHg 40%
    14:00 +20°C° 0 mm 2 mps 758 mmHg 40%
    15:00 +20°C° 0 mm 2 mps 757 mmHg 39%
    16:00 +19°C° 0 mm 2 mps 757 mmHg 44%
    17:00 +17°C° 0 mm 2 mps 757 mmHg 49%
    18:00 +16°C° 0 mm 2 mps 757 mmHg 53%
    19:00 +15°C° 0 mm 2 mps 757 mmHg 55%
    20:00 +15°C° 0 mm 2 mps 757 mmHg 57%
    21:00 +14°C° 0 mm 2 mps 757 mmHg 58%
    22:00 +14°C° 0 mm 2 mps 757 mmHg 59%
    23:00 +13°C° 0 mm 2 mps 757 mmHg 59%

    29 October, Tuesday

    Time Temperature Precipitation Wind Pressure Humidity
    00:00 +13°C° 0 mm 2 mps 757 mmHg 60%
    01:00 +13°C° 0 mm 2 mps 757 mmHg 63%
    02:00 +12°C° 0 mm 2 mps 756 mmHg 66%
    03:00 +12°C° 0 mm 2 mps 756 mmHg 70%
    04:00 +12°C° 0 mm 2 mps 756 mmHg 73%
    05:00 +10°C° 0 mm 2 mps 756 mmHg 77%
    06:00 +10°C° 0 mm 3 mps 756 mmHg 80%
    07:00 +11°C° 0 mm 3 mps 756 mmHg 76%
    08:00 +12°C° 0 mm 3 mps 756 mmHg 71%
    09:00 +13°C° 0 mm 4 mps 756 mmHg 67%
    10:00 +15°C° 0 mm 4 mps 756 mmHg 61%
    11:00 +16°C° 0 mm 5 mps 756 mmHg 54%
    12:00 +19°C° 0 mm 5 mps 756 mmHg 48%
    13:00 +19°C° 0 mm 5 mps 756 mmHg 47%
    14:00 +19°C° 0 mm 5 mps 756 mmHg 47%
    15:00 +20°C° 0 mm 5 mps 756 mmHg 46%
    16:00 +17°C° 0 mm 5 mps 756 mmHg 51%
    17:00 +17°C° 0 mm 4 mps 756 mmHg 57%
    18:00 +14°C° 0 mm 3 mps 756 mmHg 63%
    19:00 +14°C° 0 mm 3 mps 756 mmHg 66%
    20:00 +13°C° 0 mm 3 mps 756 mmHg 68%
    21:00 +13°C° 0 mm 3 mps 756 mmHg 71%
    22:00 +12°C° 0 mm 3 mps 756 mmHg 74%
    23:00 +12°C° 0 mm 3 mps 756 mmHg 77%
    Show more